Bozeman, MT

11:40 AM MDT on May 25, 2017 (GMT -0600)
Gallatin

Weather History for KBZN - February, 2012

Change the Weather History Date:

Thursday, February 16, 2012

  Actual Average Record
Temperature  
Mean Temperature 20 °F 27 °F  
Max Temperature 36 °F 39 °F 56 °F (1996)
Min Temperature 3 °F 15 °F -38 °F (1956)
Degree Days  
Heating Degree Days 45 38  
Month to date heating degree days 660 626  
Since 1 July heating degree days 4959 5148  
Cooling Degree Days 0 0  
Month to date cooling degree days 0 0  
Year to date cooling degree days 0 0  
Moisture  
Dew Point 11 °F    
Average Humidity 64    
Maximum Humidity 88    
Minimum Humidity 40    
Precipitation  
Precipitation 0.00 in 0.02 in 0.62 in (1991)
Month to date precipitation 0.19 0.22  
Year to date precipitation 0.29 0.70  
Snow  
Snow 0.00 in 0.20 in 1.50 in (1942)
Month to date snowfall 5.7 2.6  
Since 1 July snowfall 14.2 20.0  
Snow Depth -    
Sea Level Pressure  
Sea Level Pressure 30.29 in    
Wind  
Wind Speed 3 mph (SE)    
Max Wind Speed 9 mph    
Max Gust Speed 12 mph    
Visibility 10 miles    
Events      
T = Trace of Precipitation, MM = Missing Value Source: NWS Daily Summary

Daily Weather History Graph

Daily Weather History Graph

Search for Another Location

Airport or City:

Trip Planner

Search our weather history database for the weather conditions in past years. The results will help you decide how hot, cold, wet, or windy it might be!

Date:

Astronomy

Feb. 16, 2012 Rise Set
Actual Time 7:25 AM MST 5:52 PM MST
Civil Twilight 6:55 AM MST 6:22 PM MST
Nautical Twilight 6:20 AM MST 6:57 PM MST
Astronomical Twilight 5:46 AM MST 7:32 PM MST
Moon 3:35 AM MST (2/16) 12:36 PM MST (2/16)
Length of Visible Light 11h 27m
Length of Day
10h 26m
Waning Crescent, 28% of the Moon is Illuminated
Feb 16
Waning Crescent
Feb 21
New
Feb 29
First Quarter
Mar 8
Full
Mar 14
Last Quarter

Hourly Weather History & Observations

Time (MST) Temp. Windchill Dew Point Humidity Pressure Visibility Wind Dir Wind Speed Gust Speed Precip Events Conditions
1:56 AM 12.0 °F 4.1 °F 6.1 °F 77% 30.35 in 10.0 mi SE 4.6 mph - N/A   Clear
2:56 AM 9.0 °F -2.2 °F 5.0 °F 84% 30.36 in 10.0 mi SSE 6.9 mph - N/A   Clear
3:56 AM 8.1 °F - 1.9 °F 76% 30.35 in 10.0 mi Calm Calm - N/A   Clear
4:56 AM 3.9 °F - -0.0 °F 84% 30.38 in 10.0 mi Calm Calm - N/A   Clear
5:56 AM 6.1 °F -4.3 °F 3.0 °F 87% 30.39 in 10.0 mi SSE 5.8 mph - N/A   Clear
6:56 AM 6.8 °F -3.5 °F 1.4 °F 79% 30.19 in 10.0 mi South 5.8 mph - N/A   Clear
7:56 AM 7.0 °F 0.1 °F 1.9 °F 80% 30.40 in 10.0 mi SSE 3.5 mph - N/A   Clear
8:56 AM 15.1 °F - 8.1 °F 74% 30.38 in 10.0 mi Calm Calm - N/A   Clear
9:56 AM 19.0 °F - 12.0 °F 74% 30.39 in 10.0 mi Calm Calm - N/A   Clear
10:56 AM 24.8 °F - 12.2 °F 59% 30.22 in 10.0 mi Calm Calm - N/A   Clear
11:56 AM 27.0 °F - 12.9 °F 56% 30.39 in 10.0 mi Calm Calm - N/A   Clear
12:56 PM 30.0 °F 26.5 °F 14.0 °F 51% 30.37 in 10.0 mi SE 3.5 mph - N/A   Clear
2:56 PM 33.1 °F 27.7 °F 14.0 °F 46% 30.30 in 10.0 mi East 5.8 mph - N/A   Clear
3:56 PM 36.0 °F - 14.0 °F 41% 30.27 in 10.0 mi Calm Calm - N/A   Clear
4:56 PM 35.6 °F - 17.6 °F 48% 30.10 in 10.0 mi Calm Calm - N/A   Overcast
5:56 PM 33.1 °F - 17.1 °F 52% 30.26 in 10.0 mi Calm Calm - N/A   Overcast
6:56 PM 32.0 °F - 17.1 °F 54% 30.25 in 10.0 mi Calm Calm - N/A   Overcast
7:56 PM 32.0 °F - 18.0 °F 56% 30.25 in 10.0 mi Calm Calm - N/A   Overcast
8:56 PM 30.9 °F 26.2 °F 17.1 °F 57% 30.22 in 10.0 mi East 4.6 mph - N/A   Overcast
9:56 PM 30.0 °F 24.1 °F 19.0 °F 64% 30.21 in 10.0 mi WSW 5.8 mph - N/A   Overcast
10:56 PM 30.0 °F - 19.0 °F 64% 30.18 in 10.0 mi Calm Calm - N/A   Overcast
11:56 PM 28.0 °F 24.2 °F 21.0 °F 75% 30.18 in 10.0 mi East 3.5 mph - N/A   Overcast